| time (UTC) | temp C | wind direction | speed KPH | gust KPH | rain 1hr cm | rain 24hr cm | rain mn cm | humidity % | barometer mb |
| 20260509041521 | 20 | 345 | 0.0 | 0.0 | 0.00 | 0.00 | 0.00 | 88 | 1010.9 |
| 20260509040105 | 21 | 43 | 0.0 | 0.0 | 0.00 | 0.00 | 0.00 | 88 | 1010.7 |
| 20260509034508 | 21 | 56 | 0.0 | 0.0 | 0.00 | 0.00 | 0.00 | 87 | 1010.6 |
| 20260509033004 | 21 | 354 | 0.0 | 0.0 | 0.00 | 0.00 | 0.00 | 87 | 1010.3 |
| 20260509031509 | 21 | 354 | 0.0 | 0.0 | 0.00 | 0.00 | 0.00 | 87 | 1010.3 |
| 20260509030028 | 21 | 354 | 0.0 | 0.0 | 0.00 | 0.00 | 0.00 | 87 | 1010.2 |
| 20260509024516 | 21 | 4 | 0.0 | 0.0 | 0.00 | 0.00 | 0.00 | 87 | 1009.9 |
| 20260509023014 | 21 | 54 | 0.0 | 1.6 | 0.00 | 0.00 | 0.00 | 87 | 1009.4 |
| 20260509020018 | 21 | 277 | 0.0 | 1.6 | 0.00 | 0.00 | 0.00 | 86 | 1008.9 |
| 20260509014519 | 21 | 265 | 0.0 | 1.6 | 0.00 | 0.00 | 0.00 | 86 | 1008.7 |
| 20260509013107 | 21 | 265 | 0.0 | 1.6 | 0.00 | 0.00 | 0.00 | 85 | 1008.7 |
| 20260509011506 | 21 | 263 | 0.0 | 3.2 | 0.00 | 0.00 | 0.00 | 82 | 1008.4 |
| 20260509010007 | 21 | 242 | 0.0 | 3.2 | 0.00 | 0.00 | 0.00 | 80 | 1008.1 |
| 20260509004618 | 22 | 9 | 0.0 | 3.2 | 0.00 | 0.00 | 0.00 | 79 | 1007.7 |
| 20260509003018 | 23 | 194 | 0.0 | 6.4 | 0.00 | 0.00 | 0.00 | 76 | 1007.6 |
| 20260509001622 | 23 | 295 | 0.0 | 8.0 | 0.00 | 0.00 | 0.00 | 75 | 1008.7 |
| 20260509000120 | 23 | 315 | 0.0 | 1.6 | 0.00 | 0.00 | 0.00 | 74 | 1008.7 |
| 20260508233008 | 23 | 212 | 0.0 | 0.0 | 0.00 | 0.00 | 0.00 | 68 | 1009.8 |
| 20260508231613 | 24 | 212 | 0.0 | 0.0 | 0.00 | 0.00 | 0.00 | 66 | 1010.0 |
| 20260508230018 | 25 | 212 | 0.0 | 1.6 | 0.00 | 0.00 | 0.00 | 65 | 1009.6 |
| 20260508224515 | 25 | 91 | 1.6 | 8.0 | 0.00 | 0.00 | 0.00 | 67 | 1009.6 |
| 20260508223009 | 25 | 254 | 0.0 | 3.2 | 0.00 | 0.00 | 0.00 | 66 | 1009.3 |
| 20260508221508 | 26 | 65 | 1.6 | 9.7 | 0.00 | 0.00 | 0.00 | 64 | 1009.1 |
| 20260508220013 | 25 | 259 | 1.6 | 8.0 | 0.00 | 0.00 | 0.00 | 62 | 1009.2 |
| 20260508214510 | 25 | 349 | 0.0 | 1.6 | 0.00 | 0.00 | 0.00 | 62 | 1009.7 |
| 20260508213025 | 25 | 42 | 0.0 | 1.6 | 0.00 | 0.00 | 0.00 | 60 | 1009.6 |
| 20260508211516 | 26 | 118 | 0.0 | 8.0 | 0.00 | 0.00 | 0.00 | 57 | 1009.6 |
| 20260508210027 | 27 | 14 | 0.0 | 3.2 | 0.00 | 0.00 | 0.00 | 60 | 1009.7 |
| 20260508204605 | 27 | 209 | 0.0 | 8.0 | 0.00 | 0.00 | 0.00 | 55 | 1009.9 |
| 20260508203110 | 26 | 145 | 3.2 | 9.7 | 0.00 | 0.00 | 0.00 | 56 | 1009.8 |
| 20260508201519 | 27 | 326 | 0.0 | 6.4 | 0.00 | 0.00 | 0.00 | 59 | 1010.0 |
| 20260508200119 | 26 | 84 | 0.0 | 9.7 | 0.00 | 0.00 | 0.00 | 56 | 1010.2 |
| 20260508194520 | 25 | 89 | 1.6 | 8.0 | 0.00 | 0.00 | 0.00 | 60 | 1010.3 |
| 20260508193007 | 26 | 100 | 1.6 | 6.4 | 0.00 | 0.00 | 0.00 | 57 | 1010.7 |
| 20260508191611 | 26 | 243 | 0.0 | 8.0 | 0.00 | 0.00 | 0.00 | 62 | 1011.0 |
| 20260508190009 | 25 | 247 | 0.0 | 3.2 | 0.00 | 0.00 | 0.00 | 62 | 1011.2 |
| 20260508184516 | 25 | 273 | 0.0 | 3.2 | 0.00 | 0.00 | 0.00 | 59 | 1011.5 |
| 20260508183005 | 23 | 115 | 4.8 | 12.9 | 0.00 | 0.00 | 0.00 | 60 | 1011.7 |
| 20260508181513 | 23 | 93 | 3.2 | 9.7 | 0.00 | 0.00 | 0.00 | 61 | 1011.7 |
| 20260508180005 | 23 | 74 | 0.0 | 12.9 | 0.00 | 0.00 | 0.00 | 62 | 1012.0 |
| 20260508174510 | 24 | 20 | 0.0 | 8.0 | 0.00 | 0.00 | 0.00 | 62 | 1012.4 |
| 20260508171510 | 23 | 217 | 0.0 | 8.0 | 0.00 | 0.00 | 0.00 | 62 | 1012.8 |
| 20260508170106 | 23 | 354 | 1.6 | 12.9 | 0.00 | 0.00 | 0.00 | 62 | 1013.1 |
| 20260508164605 | 22 | 4 | 0.0 | 6.4 | 0.00 | 0.00 | 0.00 | 63 | 1013.6 |
| 20260508163004 | 22 | 314 | 0.0 | 16.1 | 0.00 | 0.00 | 0.00 | 64 | 1013.8 |
| 20260508161505 | 22 | 191 | 0.0 | 8.0 | 0.00 | 0.00 | 0.00 | 62 | 1014.4 |
| 20260508160105 | 22 | 89 | 0.0 | 11.3 | 0.00 | 0.00 | 0.00 | 63 | 1014.8 |
| 20260508153022 | 20 | 152 | 0.0 | 9.7 | 0.00 | 0.00 | 0.00 | 66 | 1015.3 |
| 20260508151611 | 20 | 88 | 0.0 | 8.0 | 0.00 | 0.00 | 0.00 | 65 | 1015.6 |
| 20260508150020 | 20 | 100 | 0.0 | 8.0 | 0.00 | 0.00 | 0.00 | 66 | 1015.3 |
| 20260508144607 | 18 | 87 | 0.0 | 6.4 | 0.00 | 0.00 | 0.00 | 74 | 1015.0 |
| 20260508143017 | 17 | 56 | 0.0 | 9.7 | 0.00 | 0.00 | 0.00 | 74 | 1015.2 |
| 20260508141620 | 17 | 58 | 0.0 | 6.4 | 0.00 | 0.00 | 0.00 | 74 | 1015.2 |
| 20260508140121 | 17 | 73 | 1.6 | 9.7 | 0.00 | 0.00 | 0.00 | 74 | 1015.1 |
| 20260508134518 | 17 | 95 | 4.8 | 11.3 | 0.00 | 0.00 | 0.00 | 75 | 1014.4 |
| 20260508133008 | 16 | 44 | 0.0 | 11.3 | 0.00 | 0.00 | 0.00 | 78 | 1013.7 |
| 20260508131522 | 16 | 79 | 1.6 | 9.7 | 0.00 | 0.00 | 0.00 | 79 | 1013.9 |
| 20260508130108 | 16 | 85 | 0.0 | 0.0 | 0.00 | 0.00 | 0.00 | 80 | 1014.3 |
| 20260508124607 | 16 | 105 | 0.0 | 1.6 | 0.00 | 0.00 | 0.00 | 81 | 1014.2 |
| 20260508123014 | 16 | 57 | 0.0 | 1.6 | 0.00 | 0.00 | 0.00 | 83 | 1014.2 |
| 20260508121515 | 15 | 38 | 0.0 | 0.0 | 0.00 | 0.00 | 0.00 | 86 | 1014.4 |
| 20260508120122 | 15 | 38 | 0.0 | 0.0 | 0.00 | 0.00 | 0.00 | 87 | 1014.6 |
| 20260508114605 | 15 | 38 | 0.0 | 0.0 | 0.00 | 0.00 | 0.00 | 87 | 1014.9 |
| 20260508113008 | 15 | 35 | 0.0 | 0.0 | 0.00 | 0.00 | 0.00 | 87 | 1014.9 |
| 20260508111607 | 15 | 39 | 0.0 | 0.0 | 0.00 | 0.00 | 0.00 | 88 | 1015.0 |
| 20260508110010 | 15 | 79 | 0.0 | 0.0 | 0.00 | 0.00 | 0.00 | 88 | 1014.6 |
| 20260508104512 | 15 | 79 | 0.0 | 0.0 | 0.00 | 0.00 | 0.00 | 87 | 1014.4 |
| 20260508100008 | 15 | 4 | 0.0 | 0.0 | 0.00 | 0.00 | 0.00 | 89 | 1014.3 |
| 20260508094519 | 15 | 4 | 0.0 | 0.0 | 0.00 | 0.00 | 0.00 | 88 | 1014.5 |
| 20260508093104 | 15 | 4 | 0.0 | 0.0 | 0.00 | 0.00 | 0.00 | 88 | 1014.4 |
| 20260508091517 | 15 | 8 | 0.0 | 0.0 | 0.00 | 0.00 | 0.00 | 88 | 1014.4 |
| 20260508090012 | 15 | 4 | 0.0 | 0.0 | 0.00 | 0.00 | 0.00 | 87 | 1014.4 |
| 20260508084618 | 15 | 4 | 0.0 | 0.0 | 0.00 | 0.00 | 0.00 | 86 | 1014.6 |
| 20260508083017 | 15 | 4 | 0.0 | 0.0 | 0.00 | 0.00 | 0.00 | 85 | 1014.6 |
| 20260508081523 | 16 | 8 | 0.0 | 0.0 | 0.00 | 0.00 | 0.00 | 85 | 1014.4 |
| 20260508080112 | 16 | 4 | 0.0 | 0.0 | 0.00 | 0.00 | 0.00 | 85 | 1014.4 |
| 20260508074505 | 16 | 4 | 0.0 | 0.0 | 0.00 | 0.00 | 0.00 | 85 | 1014.4 |
| 20260508073109 | 16 | 4 | 0.0 | 0.0 | 0.00 | 0.00 | 0.00 | 85 | 1014.4 |
| 20260508071607 | 16 | 8 | 0.0 | 0.0 | 0.00 | 0.00 | 0.00 | 84 | 1014.5 |
| 20260508070016 | 16 | 4 | 0.0 | 0.0 | 0.00 | 0.00 | 0.00 | 84 | 1014.7 |
| 20260508064528 | 16 | 4 | 0.0 | 0.0 | 0.00 | 0.00 | 0.00 | 84 | 1014.6 |
| 20260508063119 | 16 | 4 | 0.0 | 0.0 | 0.00 | 0.00 | 0.00 | 84 | 1015.1 |
| 20260508061520 | 16 | 8 | 0.0 | 0.0 | 0.00 | 0.00 | 0.00 | 84 | 1015.0 |
| 20260508060021 | 16 | 8 | 0.0 | 0.0 | 0.00 | 0.00 | 0.00 | 84 | 1014.5 |
| 20260508054535 | 16 | 4 | 0.0 | 0.0 | 0.00 | 0.00 | 0.00 | 83 | 1015.2 |
| 20260508053106 | 16 | 4 | 0.0 | 0.0 | 0.00 | 0.00 | 0.00 | 84 | 1014.9 |
| 20260508050011 | 16 | 4 | 0.0 | 0.0 | 0.00 | 0.00 | 0.00 | 83 | 1014.9 |
| 20260508044504 | 16 | 4 | 0.0 | 0.0 | 0.00 | 0.00 | 0.00 | 82 | 1015.0 |